パンスターズ彗星

C/2014 S1 ( PanSTARRS )

English version
Home page
Updated on November 3, 2015

---------------------------------------------------------------------

・ プロフィール

発見日 2014年9月19日
発見光度 21.3等
発見者 Pan-STARRS 1 telescope (Haleakala)

・ 写真集

・ 軌道要素

Epoch 2013 Nov. 4.0 TT = JDT 2456600.5
T 2013 Oct. 29.71212 TT                                 MPCW
q   8.1369423            (2000.0)            P               Q
z  -0.0000113      Peri.  288.79930     +0.38676952     +0.91606843
 +/-0.0000120      Node   352.67422     +0.75441381     -0.38039468
e   1.0000923      Incl.  123.79789     -0.53034813     +0.12695877
From 42 observations 2014 Sept. 19-2015 Sept. 13, mean residual 0".5.

・ 光度変化

        m1 = 6.0 + 5 logΔ + 10.0 log r

---------------------------------------------------------------------

軌道要素はM.P.E.C. 2015-S97に掲載されたものです。
光度グラフはComet for Windowsで作成したものです。

---------------------------------------------------------------------

Copyright(C) Seiichi Yoshida (comet@aerith.net). All rights reserved.